Location: Newark
(48.6461°N, 4.3644°W)
Time: 07:20:49
(UTC+00:00)

Transit 4A - Pass Details

Date: 31 January 2020
Orbit: 872 x 973 km, 66.8° (Epoch: 17 February)

Event Time Altitude Azimuth Distance (km) Brightness Sun altitude
Rises 06:58:55 0° 242° (WSW) 3,527 10.5 -8.6°
Reaches altitude 10° 07:01:38 10° 251° (WSW) 2,574 9.7 -8.1°
Maximum altitude 07:07:07 37° 318° (NW) 1,342 8.4 -7.3°
Drops below altitude 10° 07:12:33 10° 26° (NNE) 2,540 10.3 -6.4°
Sets 07:15:14 0° 34° (NE) 3,475 11.1 -6.0°
